Regional Weather Roundup
Issued by NWS Charleston, SC

Current Version | Previous Version | Text Only | Print | Product List | Glossary Off
Versions: 1 2 3 4 5 6 7 8 9 10 11 12 13 14 15 16 17 18 19 20 21 22 23 24 25 26 27 28 29 30 31 32 33 34 35 36 37 38 39 40 41 42 43 44 45 46 47 48 49 50
000 ASUS42 KCHS 300626 RWRCHS REGIONAL WEATHER ROUNDUP NATIONAL WEATHER SERVICE CHARLESTON SC 200 AM EDT MON MAR 30 2015 NOTE: "FAIR" INDICATES FEW OR NO CLOUDS BELOW 12,000 FEET WITH NO SIGNIFICANT WEATHER AND/OR OBSTRUCTIONS TO VISIBILITY. NOT ALL STATIONS ARE QUALITY CONTROLLED BY THE NATIONAL WEATHER SERVICE. USE DATA WITH CAUTION...ESPECIALLY DEWPOINT OBSERVATIONS. SCZ027-030-031-034>040-042>050-300700- ...SOUTHEAST SOUTH CAROLINA... CITY SKY/WX TMP DP RH WIND PRES REMARKS N CHARLESTON CLEAR 42 34 73 S3 30.30F 6HR MIN TEMP: 41; 6HR MAX TEMP: 47; WATERFRONT PRK N/A 50 N/A N/A SW5 N/A MOUNT PLEASANT LGT RAIN 39 36 87 CALM 30.29F PINOPOLIS N/A 46 34 61 VRB3 30.22F MONCKS CORNER FAIR 39 34 81 CALM 30.27F SUMMERVILLE FAIR 36 36 100 CALM 30.29F BEAUFORT MCAS CLEAR 41 36 82 CALM 30.30F 6HR MIN TEMP: 41; 6HR MAX TEMP: 51; BEAUFORT ARPT FAIR 43 37 81 CALM 30.28F HILTON HEAD IS CLEAR 45 37 76 CALM 30.30F WALTERBORO CLEAR 36 34 93 CALM 30.28F ALLENDALE FAIR 43 34 70 CALM 30.25F ...SOUTHERN MIDLANDS AND PEE DEE... CITY SKY/WX TMP DP RH WIND PRES REMARKS GEORGETOWN NOT AVBL KINGSTREE NOT AVBL ORANGEBURG CLEAR 41 31 67 S3 30.27F 6HR MIN TEMP: 38; 6HR MAX TEMP: 51; BARNWELL FAIR 45 34 65 S5 30.25F AIKEN FAIR 43 30 61 S10 30.26F MANNING FLURRIES 45 32 61 S8 30.26F COLUMBIA CLEAR 45 27 49 SW7 30.23F 6HR MIN TEMP: 39; 6HR MAX TEMP: 53; SUMTER CLEAR 41 30 64 S7 30.23F 6HR MIN TEMP: 39; 6HR MAX TEMP: 49; FLORENCE CLEAR 41 31 67 S8 30.25F 6HR MIN TEMP: 39; 6HR MAX TEMP: 49; MYRTLE BEACH CLEAR 45 30 57 S7 30.29F N MYRTLE BEACH CLEAR 46 32 58 SW9 30.28F 6HR MIN TEMP: 38; 6HR MAX TEMP: 49; $$ GAZ063-065-086>088-099>101-113>116-118-119-134>141-150-300700- ...SOUTHEAST GEORGIA... CITY SKY/WX TMP DP RH WIND PRES REMARKS SAVANNAH ARPT CLEAR 42 36 79 CALM 30.30F 6HR MIN TEMP: 40; 6HR MAX TEMP: 50; HUNTER AAF CLEAR 40 38 91 SE2 30.27F 6HR MIN TEMP: 39; 6HR MAX TEMP: 50; FORT STEWART CLEAR 39 36 87 CALM 30.28F 6HR MIN TEMP: 39; 6HR MAX TEMP: 51; STATESBORO CLEAR 40 37 89 CALM 30.27F SYLVANIA CLEAR 41 37 83 CALM 30.28F CLAXTON FAIR 41 37 87 CALM 30.28F ...CSRA...CENTRAL AND FAR SOUTHEAST GEORGIA... CITY SKY/WX TMP DP RH WIND PRES REMARKS THOMSON CLEAR 48 36 63 S6 30.27F AUGUSTA-BUSH CLEAR 43 32 65 S6 30.25F 6HR MIN TEMP: 36; 6HR MAX TEMP: 52; AUGUSTA-DANIEL CLEAR 47 31 53 S8 30.24F SWAINSBORO FAIR 46 30 53 S5 30.26F VIDALIA CLEAR 45 37 76 CALM 30.27F EASTMAN FAIR 46 40 81 S6 30.28F HAZLEHURST FAIR 46 39 76 S6 30.26F ALMA CLEAR 43 37 79 SE3 30.28F 6HR MIN TEMP: 43; 6HR MAX TEMP: 52; WAYCROSS CLEAR 48 43 82 S3 30.28F JESUP FAIR 37 36 93 CALM 30.29F BAXLEY FAIR 45 39 81 CALM 30.27F BRUNSWICK CLEAR 41 37 87 CALM 30.30F SAINT SIMONS CLEAR 54 39 57 S5 30.30F 6HR MIN TEMP: 51; 6HR MAX TEMP: 54; $$ SCZ027-028-034-036>038-045-046-048>050-GAZ119-141-300700- ...LAKE AND SUPPLEMENTAL COASTAL OBSERVATIONS... STATION/POSITION TIME TEMP WIND PRES WAVE SWELL AIR SEA DIR/SP/G HT/PER HT/PER/DIR (UTC) (F) (DEG/KT/KT) (MB) (FT/S) (FT/S/D) UPR LAKE MARION NOT AVBL WINYAH BAY 0500 39 290/ 1 1025.0S LAKE MURRAY 0500 49 200/ 17/ 20 1023.7F ACE BASIN NERRS NOT AVBL FORT PULASKI 0500 51 61 160/ 3/ 5 1027.1F SAPELO ISLAND 0600 48 160/ 5 1026.0F $$ ANZ835-935-AMZ111-154-330-350-352-354-370-450-454-472-300700- ...C-MAN AND BUOY OBSERVATIONS... STATION/POSITION TIME TEMP WIND PRES WAVE SWELL AIR SEA DIR/SP/G HT/PER HT/PER/DIR (UTC) (F) (DEG/KT/KT) (MB) (FT/S) (FT/S/D) BUOY 41004 0550 56 69 220/ 10/ 14 1025.8F 3/ 8 3/ 8 BUOY 41008 0550 57 60 180/ 10/ 14 1025.9F 3/ 9 2/ 70/ 9 FOLLY BEACH CMAN 0600 54 210/ 13/ 15 1025.9F CAPERS NEARSHORE NOT AVBL FRIPP NEARSHORE 0500 55 190/ 12/ 16 1025.7F STATION/POSITION TIME TEMP WIND PRES WAVE SWELL AIR SEA DIR/SP/G HT/PER HT/PER/DIR (UTC) (F) (DEG/KT/KT) (MB) (FT/S) (FT/S/D) 5E ST. MARYS GA 0521 60 N/A 3/ 8 FRYING PAN BUOY 0550 52 65 190/ 8/ 10 1026.3F 2/ 8 2/ 70/ 8 BUOY 41025 NOT AVBL CAPE LOOKOUT NC 0600 47 240/ 10/ 13 1024.8F BUOY 41002 0550 53 67 30/ 6/ 10 1026.6F 6/ 8 7/ 10/ 8 BUOY 41010 0520 63 75 60/ 10/ 14 1026.3F ST AUGUSTINE FL 0600 57 60 40/ 4/ 4 1027.2F $$

USA.gov is the U.S. government's official web portal to all federal, state and local government web resources and services.